GOES 17

Last updated on Thu Aug 20 2026 00:02:39 GMT+0000 (Coordinated Universal Time)

1 43226U 18022A 26231.53993722 -.00000186 00000+0 00000+0 0 9998 2 43226 1.0950 84.6879 0000727 89.3221 258.7580 1.00272110 31055
UTC large
Height (km)
Speed (km/s)
/
Latitude / Longitude
Inclination (degrees)
Orbital Period (minutes)
Azimuth
Elevation
Range (km)
Doppler Factor

Next 0 passes for location: London (51.5072 / 0.1276)

No passes found over London.
GOES 17